Flag for U.S.A. Weather past 2 weeks in Roanoke, Virginia, U.S.A.

Now
34 °F

Partly sunny.


Feels Like: 28 °F
Forecast: 32 / 46 °F
Wind: 7 mph from Northwest

Location: Roanoke Regional Airport

Current Time: Dec 18, 2014 at 9:12:42 AM

Latest Report: Dec 18, 2014 at 8:54 AM


Visibility: 10 mi

Pressure: 30.19 "Hg

Humidity: 56%

Dew point: 19 °F

Location of RoanokeLocation

Historic Weather in Roanoke — Graph

°F

Roanoke temperature yesterday

Maximum temperature yesterday: 51 °F (at 12:54 PM)
Minimum temperature yesterday: 39 °F (at 11:54 PM)
Average temperature yesterday: 46 °F

Past Weeks' High & Low Weather Summary

 TemperatureHumidityPressure
High61 °F (Dec 3, 3:54 PM)100% (Dec 3, 7:54 AM)30.54 "Hg (Dec 3, 7:54 AM)
Low30 °F (Dec 11, 3:54 AM)19% (Dec 12, 11:54 AM)29.84 "Hg (Dec 16, 1:54 PM)
Average42 °F63%30.18 "Hg
* Reported Dec 3 7:54 AM — Dec 18 7:54 AM, Roanoke, Weather by CustomWeather, © 2014

Note: Actual official high and low records may vary slightly from our data, if they occured in-between our weather recording intervals... More about our weather records

Advertising

Roanoke weather history for previous 24 hours

 ConditionsComfort  
Time TempWeatherWind HumidityBarometerVisibility
7:54 AM
Dec 18
34 °FBroken clouds.12 mph56%30.18 "Hg10 mi
6:54 AM34 °FPassing clouds.5 mph56%30.18 "Hg10 mi
5:54 AM34 °FPassing clouds.3 mph56%30.17 "Hg10 mi
4:54 AM34 °FClear.8 mph59%30.15 "Hg10 mi
3:54 AM35 °FClear.6 mph56%30.14 "Hg10 mi
2:54 AM36 °FClear.13 mph54%30.13 "Hg10 mi
1:54 AM35 °FClear.8 mph59%30.12 "Hg10 mi
12:54 AM38 °FClear.21 mph55%30.10 "Hg10 mi
11:54 PM
Dec 17
39 °FClear.18 mph53%30.11 "Hg10 mi
10:54 PM40 °FClear.20 mph53%30.10 "Hg10 mi
9:54 PM41 °FClear.18 mph51%30.09 "Hg10 mi
8:54 PM40 °FClear.7 mph55%30.10 "Hg10 mi
7:54 PM42 °FClear.8 mph53%30.10 "Hg10 mi
6:54 PM43 °FClear.3 mph49%30.09 "Hg10 mi
5:54 PM43 °FPassing clouds.6 mph51%30.08 "Hg10 mi
4:54 PM47 °FPartly sunny.8 mph44%30.07 "Hg10 mi
3:54 PM50 °FPassing clouds.12 mph38%30.05 "Hg10 mi
2:54 PM51 °FPassing clouds.15 mph36%30.05 "Hg10 mi
1:54 PM51 °FPassing clouds.17 mph38%30.05 "Hg10 mi
12:54 PM51 °FPassing clouds.16 mph42%30.06 "Hg10 mi
11:54 AM49 °FScattered clouds.14 mph48%30.09 "Hg10 mi
10:54 AM49 °FMostly cloudy.17 mph52%30.11 "Hg10 mi
9:54 AM48 °FOvercast.15 mph54%30.10 "Hg10 mi
Weather by CustomWeather, © 2014

See weather overviewHow to use our weather pages